TimeCDT,TemperatureF,Dew PointF,Humidity,Sea Level PressureIn,VisibilityMPH,Wind Direction,Wind SpeedMPH,Gust SpeedMPH,PrecipitationIn,Events,Conditions,WindDirDegrees,DateUTC
12:51 AM,84.9,68.0,57,29.89,10.0,Variable,3.5,-,N/A,,Clear,0,2013-07-13 05:51:00
1:51 AM,82.9,68.0,60,29.90,10.0,South,3.5,-,N/A,,Clear,180,2013-07-13 06:51:00
2:51 AM,82.0,66.9,60,29.90,10.0,SW,3.5,-,N/A,,Clear,220,2013-07-13 07:51:00
3:51 AM,80.1,66.9,64,29.90,10.0,Calm,Calm,-,N/A,,Clear,0,2013-07-13 08:51:00
4:51 AM,79.0,66.0,64,29.90,10.0,Calm,Calm,-,N/A,,Clear,0,2013-07-13 09:51:00
5:51 AM,77.0,66.9,71,29.91,10.0,Calm,Calm,-,N/A,,Clear,0,2013-07-13 10:51:00
6:51 AM,75.9,68.0,76,29.92,10.0,Calm,Calm,-,N/A,,Clear,0,2013-07-13 11:51:00
7:51 AM,79.0,66.9,66,29.94,10.0,Calm,Calm,-,N/A,,Clear,0,2013-07-13 12:51:00
8:51 AM,84.0,66.0,55,29.95,10.0,WNW,4.6,-,N/A,,Clear,290,2013-07-13 13:51:00
9:51 AM,89.1,63.0,42,29.96,10.0,Variable,3.5,-,N/A,,Clear,0,2013-07-13 14:51:00
10:51 AM,93.9,63.0,36,29.94,10.0,Variable,3.5,-,N/A,,Clear,0,2013-07-13 15:51:00
11:51 AM,96.1,62.1,32,29.94,10.0,Variable,4.6,-,N/A,,Clear,0,2013-07-13 16:51:00
12:51 PM,98.1,62.1,30,29.91,10.0,North,5.8,-,N/A,,Clear,10,2013-07-13 17:51:00
1:51 PM,100.0,57.9,25,29.89,10.0,Variable,6.9,-,N/A,,Clear,0,2013-07-13 18:51:00
2:51 PM,102.9,57.0,22,29.87,10.0,Variable,4.6,-,N/A,,Scattered Clouds,0,2013-07-13 19:51:00
3:51 PM,102.9,55.0,20,29.85,10.0,Variable,3.5,-,N/A,,Partly Cloudy,0,2013-07-13 20:51:00
4:51 PM,104.0,55.0,20,29.83,10.0,Calm,Calm,-,N/A,,Clear,0,2013-07-13 21:51:00
5:51 PM,102.9,54.0,20,29.81,10.0,ESE,5.8,-,N/A,,Clear,110,2013-07-13 22:51:00
6:51 PM,100.9,54.0,21,29.80,10.0,Variable,6.9,-,N/A,,Clear,0,2013-07-13 23:51:00
7:51 PM,100.0,54.0,21,29.80,10.0,Calm,Calm,-,N/A,,Partly Cloudy,0,2013-07-14 00:51:00
8:51 PM,96.1,55.0,25,29.81,10.0,Calm,Calm,-,N/A,,Mostly Cloudy,0,2013-07-14 01:51:00
9:51 PM,95.0,57.0,28,29.82,10.0,ESE,5.8,-,N/A,,Scattered Clouds,120,2013-07-14 02:51:00
10:51 PM,93.9,57.9,30,29.84,10.0,ESE,5.8,-,N/A,,Mostly Cloudy,110,2013-07-14 03:51:00
11:51 PM,89.1,60.1,38,29.85,10.0,East,3.5,-,N/A,,Clear,80,2013-07-14 04:51:00